Location: Ethel Rock
(53.4667°N, 4.5667°W)
Time: 05:32:33
(UTC+00:00)

Cosmos 2251 Rocket - Pass Details

Date: 24 October 2020
Orbit: 765 x 791 km, 74.0° (Epoch: 25 November)

Event Time Altitude Azimuth Distance (km) Brightness Sun altitude
Rises 06:19:22 0° 207° (SSW) 3,277 6.6 -7.1°
Reaches altitude 10° 06:21:45 10° 208° (SSW) 2,350 5.9 -6.7°
Maximum altitude 06:27:07 82° 297° (WNW) 802 3.6 -5.9°
Drops below altitude 10° 06:32:30 10° 25° (NNE) 2,354 6.2 -5.2°
Sets 06:34:53 0° 27° (NNE) 3,282 7.0 -4.8°
